| time (UTC) | temp F | wind direction | speed MPH | gust MPH | rain 1hr in | rain 24hr in | rain mn in | humidity % | barometer mb |
| 20260507001535 | 47 | 25 | 0.0 | 0.0 | 0.00 | 0.48 | 0.00 | 96 | 1011.0 |
| 20260507000035 | 48 | 25 | 0.0 | 0.0 | 0.00 | 0.50 | 0.00 | 96 | 1011.0 |
| 20260506234538 | 48 | 25 | 0.0 | 0.0 | 0.00 | 0.50 | 0.00 | 96 | 1011.0 |
| 20260506233032 | 48 | 25 | 0.0 | 0.0 | 0.00 | 0.50 | 0.00 | 96 | 1010.9 |
| 20260506231534 | 48 | 25 | 0.0 | 0.0 | 0.00 | 0.50 | 0.00 | 96 | 1011.0 |
| 20260506230029 | 48 | 25 | 0.0 | 0.0 | 0.00 | 0.53 | 0.00 | 96 | 1010.8 |
| 20260506224529 | 48 | 25 | 0.0 | 0.0 | 0.00 | 0.53 | 0.00 | 96 | 1010.7 |
| 20260506223027 | 48 | 25 | 0.0 | 0.0 | 0.00 | 0.53 | 0.00 | 96 | 1010.6 |
| 20260506221526 | 48 | 25 | 0.0 | 0.0 | 0.00 | 0.53 | 0.00 | 96 | 1010.6 |
| 20260506220024 | 48 | 25 | 0.0 | 0.0 | 0.00 | 0.54 | 0.53 | 96 | 1010.6 |
| 20260506214525 | 48 | 25 | 0.0 | 0.0 | 0.00 | 0.54 | 0.53 | 96 | 1010.5 |
| 20260506213022 | 48 | 25 | 0.0 | 0.0 | 0.00 | 0.54 | 0.53 | 96 | 1010.4 |
| 20260506211523 | 48 | 25 | 0.0 | 0.0 | 0.00 | 0.54 | 0.53 | 96 | 1010.3 |
| 20260506210019 | 48 | 25 | 0.0 | 0.0 | 0.00 | 0.54 | 0.53 | 96 | 1010.1 |
| 20260506204518 | 49 | 25 | 0.0 | 0.0 | 0.00 | 0.54 | 0.53 | 96 | 1010.1 |
| 20260506203016 | 49 | 26 | 0.0 | 0.0 | 0.00 | 0.54 | 0.53 | 96 | 1010.1 |
| 20260506201518 | 49 | 26 | 0.0 | 0.0 | 0.00 | 0.54 | 0.53 | 96 | 1009.8 |
| 20260506200012 | 49 | 24 | 0.0 | 0.0 | 0.00 | 0.54 | 0.53 | 96 | 1009.7 |
| 20260506194513 | 49 | 20 | 0.0 | 0.0 | 0.01 | 0.54 | 0.53 | 96 | 1009.6 |
| 20260506193013 | 49 | 20 | 0.0 | 0.0 | 0.01 | 0.54 | 0.53 | 96 | 1009.6 |
| 20260506191509 | 49 | 26 | 0.0 | 0.0 | 0.01 | 0.54 | 0.53 | 96 | 1009.4 |
| 20260506190008 | 49 | 24 | 0.0 | 0.0 | 0.01 | 0.54 | 0.53 | 96 | 1009.3 |
| 20260506184508 | 49 | 23 | 0.0 | 0.0 | 0.01 | 0.54 | 0.52 | 96 | 1009.1 |
| 20260506183008 | 49 | 23 | 0.0 | 0.0 | 0.01 | 0.54 | 0.52 | 96 | 1009.0 |
| 20260506181504 | 49 | 23 | 0.0 | 0.0 | 0.01 | 0.54 | 0.52 | 96 | 1009.0 |
| 20260506180002 | 49 | 23 | 0.0 | 0.0 | 0.00 | 0.53 | 0.51 | 96 | 1008.7 |
| 20260506174600 | 49 | 23 | 0.0 | 0.0 | 0.01 | 0.53 | 0.51 | 96 | 1008.5 |
| 20260506173558 | 50 | 23 | 0.0 | 0.0 | 0.04 | 2.64 | 0.51 | 96 | 1008.4 |
| 20260506173147 | 49 | 23 | 0.0 | 0.0 | 0.01 | 0.53 | 0.51 | 96 | 1008.4 |
| 20260506173044 | 50 | 23 | 0.0 | 0.0 | 0.04 | 2.64 | 0.51 | 96 | 1008.4 |
| 20260506172556 | 50 | 23 | 0.0 | 0.0 | 0.04 | 2.64 | 0.51 | 96 | 1008.3 |
| 20260506172044 | 50 | 23 | 0.0 | 0.0 | 0.04 | 2.64 | 0.51 | 96 | 1008.2 |
| 20260506171617 | 50 | 23 | 0.0 | 0.0 | 0.04 | 2.64 | 0.51 | 96 | 1008.3 |
| 20260506171039 | 50 | 23 | 0.0 | 0.0 | 0.04 | 2.64 | 0.51 | 96 | 1008.2 |
| 20260506170550 | 50 | 23 | 0.0 | 0.0 | 0.04 | 2.64 | 0.51 | 96 | 1008.2 |
| 20260506170141 | 49 | 23 | 0.0 | 0.0 | 0.01 | 0.53 | 0.51 | 96 | 1008.2 |
| 20260506170037 | 50 | 23 | 0.0 | 0.0 | 0.04 | 2.64 | 0.51 | 96 | 1008.3 |
| 20260506165550 | 50 | 23 | 0.0 | 0.0 | 0.04 | 2.64 | 0.51 | 96 | 1008.2 |
| 20260506165039 | 50 | 22 | 0.0 | 0.0 | 0.04 | 2.64 | 0.51 | 96 | 1008.2 |
| 20260506164550 | 50 | 22 | 0.0 | 0.0 | 0.00 | 2.60 | 0.50 | 96 | 1008.1 |
| 20260506164057 | 50 | 21 | 0.0 | 0.0 | 0.00 | 2.60 | 0.50 | 96 | 1008.1 |
| 20260506163550 | 50 | 21 | 0.0 | 0.0 | 0.00 | 2.60 | 0.50 | 96 | 1008.1 |
| 20260506163057 | 50 | 31 | 0.0 | 0.0 | 0.00 | 2.60 | 0.50 | 96 | 1008.1 |
| 20260506163021 | 50 | 31 | 0.0 | 0.0 | 0.00 | 0.52 | 0.50 | 96 | 1008.1 |
| 20260506162610 | 50 | 31 | 0.0 | 0.0 | 0.00 | 2.60 | 0.50 | 96 | 1008.1 |
| 20260506162057 | 50 | 31 | 0.0 | 0.0 | 0.00 | 2.60 | 0.50 | 96 | 1008.1 |
| 20260506161652 | 50 | 31 | 0.0 | 0.0 | 0.00 | 0.52 | 0.50 | 96 | 1008.1 |
| 20260506161551 | 50 | 30 | 0.0 | 0.0 | 0.00 | 2.60 | 0.50 | 96 | 1008.0 |
| 20260506161039 | 50 | 30 | 0.0 | 0.0 | 0.00 | 2.60 | 0.50 | 96 | 1008.0 |
| 20260506160611 | 50 | 21 | 0.0 | 0.0 | 0.00 | 2.60 | 0.50 | 96 | 1007.9 |
| 20260506160158 | 50 | 71 | 0.0 | 0.0 | 0.00 | 0.52 | 0.50 | 96 | 1007.8 |
| 20260506160055 | 50 | 71 | 0.0 | 0.0 | 0.00 | 2.60 | 0.50 | 96 | 1007.8 |
| 20260506155548 | 50 | 71 | 0.0 | 0.0 | 0.00 | 2.60 | 0.50 | 96 | 1007.8 |
| 20260506155054 | 50 | 73 | 0.0 | 0.0 | 0.00 | 2.60 | 0.50 | 96 | 1007.8 |
| 20260506154649 | 50 | 138 | 0.0 | 0.0 | 0.00 | 0.52 | 0.50 | 96 | 1007.9 |
| 20260506154547 | 50 | 139 | 0.0 | 0.0 | 0.00 | 2.60 | 0.50 | 96 | 1007.8 |
| 20260506154054 | 50 | 150 | 0.0 | 0.0 | 0.00 | 2.60 | 0.50 | 96 | 1007.8 |
| 20260506153547 | 50 | 150 | 0.0 | 0.0 | 0.00 | 2.60 | 0.50 | 96 | 1007.8 |
| 20260506153051 | 50 | 150 | 0.0 | 0.0 | 0.00 | 2.60 | 0.50 | 96 | 1007.8 |
| 20260506152544 | 50 | 142 | 0.0 | 0.0 | 0.00 | 2.60 | 0.50 | 96 | 1007.8 |
| 20260506152112 | 50 | 137 | 0.0 | 0.0 | 0.00 | 2.60 | 0.50 | 96 | 1007.8 |
| 20260506151644 | 50 | 137 | 0.0 | 0.0 | 0.00 | 0.52 | 0.50 | 96 | 1007.8 |
| 20260506151543 | 50 | 137 | 0.0 | 0.0 | 0.00 | 2.60 | 0.50 | 96 | 1007.8 |
| 20260506151052 | 50 | 137 | 0.0 | 0.0 | 0.00 | 2.60 | 0.50 | 96 | 1007.7 |
| 20260506150545 | 50 | 137 | 0.0 | 0.0 | 0.00 | 2.60 | 0.50 | 96 | 1007.7 |
| 20260506150152 | 50 | 137 | 0.0 | 0.0 | 0.00 | 0.52 | 0.50 | 96 | 1007.7 |
| 20260506150050 | 51 | 137 | 0.0 | 0.0 | 0.00 | 2.60 | 0.50 | 96 | 1007.7 |
| 20260506145544 | 51 | 137 | 0.0 | 0.0 | 0.00 | 2.60 | 0.50 | 96 | 1007.6 |
| 20260506145052 | 51 | 132 | 0.0 | 0.0 | 0.00 | 2.60 | 0.50 | 96 | 1007.6 |
| 20260506144606 | 51 | 134 | 0.0 | 0.0 | 0.00 | 2.60 | 0.50 | 96 | 1007.6 |
| 20260506144053 | 52 | 126 | 0.0 | 0.0 | 0.00 | 2.60 | 0.50 | 96 | 1007.6 |
| 20260506143606 | 52 | 113 | 0.0 | 0.0 | 0.00 | 2.60 | 0.50 | 96 | 1007.5 |
| 20260506143053 | 52 | 124 | 0.0 | 0.0 | 0.00 | 2.60 | 0.50 | 97 | 1007.5 |
| 20260506143006 | 51 | 124 | 0.0 | 0.0 | 0.00 | 0.52 | 0.50 | 97 | 1007.6 |
| 20260506142606 | 51 | 124 | 0.0 | 0.0 | 0.00 | 2.60 | 0.50 | 97 | 1007.5 |
| 20260506142048 | 51 | 117 | 0.0 | 0.0 | 0.00 | 2.60 | 0.50 | 96 | 1007.5 |
| 20260506141600 | 51 | 117 | 0.0 | 0.0 | 0.00 | 2.60 | 0.50 | 96 | 1007.5 |
| 20260506141047 | 51 | 113 | 0.0 | 0.0 | 0.00 | 2.60 | 0.50 | 96 | 1007.5 |
| 20260506140620 | 51 | 112 | 0.0 | 0.0 | 0.00 | 2.60 | 0.50 | 96 | 1007.5 |
| 20260506140146 | 50 | 112 | 0.0 | 0.0 | 0.00 | 0.52 | 0.50 | 96 | 1007.6 |
| 20260506140045 | 51 | 112 | 0.0 | 0.0 | 0.00 | 2.60 | 0.50 | 96 | 1007.5 |
| 20260506135557 | 51 | 112 | 0.0 | 0.0 | 0.00 | 2.60 | 0.50 | 96 | 1007.5 |
| 20260506135103 | 51 | 112 | 0.0 | 0.0 | 0.00 | 2.60 | 0.50 | 96 | 1007.5 |
| 20260506134656 | 51 | 112 | 0.0 | 0.0 | 0.00 | 0.52 | 0.50 | 96 | 1007.6 |
| 20260506134555 | 51 | 111 | 0.0 | 0.0 | 0.00 | 2.60 | 0.50 | 96 | 1007.6 |
| 20260506134044 | 51 | 110 | 0.0 | 0.0 | 0.00 | 2.60 | 0.50 | 96 | 1007.6 |
| 20260506133555 | 51 | 108 | 0.0 | 0.0 | 0.00 | 2.60 | 0.50 | 96 | 1007.5 |
| 20260506133143 | 50 | 68 | 0.0 | 0.0 | 0.00 | 0.52 | 0.50 | 96 | 1007.5 |
| 20260506133043 | 51 | 68 | 0.0 | 0.0 | 0.00 | 2.60 | 0.50 | 96 | 1007.5 |
| 20260506132556 | 51 | 67 | 0.0 | 0.0 | 0.00 | 2.60 | 0.50 | 96 | 1007.5 |
| 20260506132043 | 51 | 67 | 0.0 | 0.0 | 0.00 | 2.60 | 0.50 | 96 | 1007.5 |
| 20260506131554 | 51 | 86 | 0.0 | 0.0 | 0.00 | 2.60 | 0.50 | 96 | 1007.4 |
| 20260506131041 | 51 | 92 | 0.0 | 0.0 | 0.04 | 2.60 | 0.50 | 96 | 1007.4 |
| 20260506130554 | 51 | 86 | 0.0 | 0.0 | 0.04 | 2.60 | 0.50 | 96 | 1007.3 |
| 20260506130101 | 51 | 86 | 0.0 | 0.0 | 0.04 | 2.60 | 0.50 | 96 | 1007.3 |
| 20260506130019 | 51 | 86 | 0.0 | 0.0 | 0.01 | 0.52 | 0.50 | 96 | 1007.3 |
| 20260506125556 | 51 | 86 | 0.0 | 0.0 | 0.04 | 2.60 | 0.50 | 97 | 1007.3 |
| 20260506124541 | 50 | 85 | 0.0 | 0.0 | 0.01 | 0.52 | 0.50 | 96 | 1007.2 |
| 20260506123040 | 51 | 91 | 0.0 | 0.0 | 0.01 | 0.52 | 0.50 | 97 | 1007.2 |
| 20260506121537 | 51 | 33 | 0.0 | 0.0 | 0.01 | 0.52 | 0.50 | 97 | 1007.1 |
| 20260506120036 | 51 | 71 | 0.0 | 0.0 | 0.00 | 0.51 | 0.50 | 97 | 1006.9 |
| 20260506114538 | 51 | 33 | 0.0 | 0.0 | 0.01 | 0.51 | 0.50 | 97 | 1006.8 |
| 20260506113041 | 51 | 32 | 0.0 | 0.0 | 0.02 | 0.51 | 0.50 | 97 | 1006.7 |
| 20260506111534 | 52 | 36 | 0.0 | 0.0 | 0.04 | 0.51 | 0.50 | 97 | 1006.6 |
| 20260506110035 | 51 | 59 | 0.0 | 0.0 | 0.06 | 0.51 | 0.50 | 97 | 1006.5 |
| 20260506104533 | 51 | 73 | 0.0 | 0.0 | 0.08 | 0.50 | 0.49 | 97 | 1006.5 |
| 20260506103043 | 52 | 45 | 0.0 | 0.0 | 0.08 | 0.49 | 0.47 | 97 | 1006.4 |
| 20260506101543 | 52 | 89 | 0.0 | 0.0 | 0.08 | 0.47 | 0.46 | 97 | 1006.4 |
| 20260506100045 | 52 | 67 | 0.0 | 0.0 | 0.06 | 0.45 | 0.43 | 97 | 1006.2 |
| 20260506094528 | 51 | 71 | 0.0 | 0.0 | 0.04 | 0.43 | 0.41 | 97 | 1006.1 |
| 20260506093038 | 51 | 65 | 0.0 | 0.0 | 0.03 | 0.41 | 0.39 | 97 | 1006.0 |
| 20260506091533 | 51 | 38 | 0.0 | 0.0 | 0.02 | 0.39 | 0.38 | 97 | 1005.9 |
| 20260506090028 | 51 | 25 | 0.0 | 0.0 | 0.02 | 0.39 | 0.37 | 97 | 1005.9 |
| 20260506084527 | 51 | 25 | 0.0 | 0.0 | 0.02 | 0.39 | 0.37 | 97 | 1005.8 |
| 20260506083028 | 51 | 25 | 0.0 | 0.0 | 0.01 | 0.38 | 0.36 | 96 | 1005.6 |
| 20260506081532 | 51 | 25 | 0.0 | 0.0 | 0.00 | 0.37 | 0.35 | 96 | 1005.4 |
| 20260506073125 | 51 | 29 | 0.0 | 0.0 | 0.02 | 0.37 | 0.35 | 96 | 1005.2 |
| 20260506071524 | 51 | 28 | 0.0 | 0.0 | 0.03 | 0.37 | 0.35 | 97 | 1005.1 |
| 20260506061521 | 51 | 23 | 0.0 | 0.0 | 0.04 | 0.34 | 0.32 | 97 | 1004.9 |
| 20260506044548 | 50 | 47 | 0.0 | 0.0 | 0.04 | 0.28 | 0.26 | 96 | 1004.8 |
| 20260506043017 | 50 | 53 | 0.0 | 0.0 | 0.04 | 0.28 | 0.25 | 96 | 1004.8 |
| 20260506041517 | 50 | 41 | 0.0 | 0.0 | 0.03 | 0.26 | 0.24 | 96 | 1004.8 |
| 20260506040017 | 50 | 41 | 0.0 | 0.0 | 0.03 | 0.28 | 0.23 | 96 | 1004.8 |
| 20260506034537 | 50 | 40 | 0.0 | 0.0 | 0.03 | 0.28 | 0.22 | 96 | 1004.8 |
| 20260506033013 | 50 | 40 | 0.0 | 0.0 | 0.04 | 0.27 | 0.21 | 96 | 1004.9 |
| 20260506031515 | 50 | 40 | 0.0 | 0.0 | 0.04 | 0.26 | 0.20 | 96 | 1005.0 |
| 20260506030010 | 50 | 40 | 0.0 | 0.0 | 0.06 | 0.25 | 0.20 | 96 | 1005.1 |
| 20260506024510 | 51 | 40 | 0.0 | 0.0 | 0.06 | 0.24 | 0.19 | 96 | 1005.2 |
| 20260506023009 | 51 | 40 | 0.0 | 0.0 | 0.06 | 0.23 | 0.17 | 96 | 1005.2 |
| 20260506021508 | 51 | 40 | 0.0 | 0.0 | 0.06 | 0.22 | 0.17 | 96 | 1005.4 |
| 20260506020007 | 51 | 37 | 0.0 | 0.0 | 0.05 | 0.21 | 0.14 | 96 | 1005.4 |
| 20260506014505 | 51 | 26 | 0.0 | 0.0 | 0.04 | 0.20 | 0.13 | 96 | 1005.5 |
| 20260506013003 | 51 | 26 | 0.0 | 0.0 | 0.05 | 0.19 | 0.12 | 96 | 1005.6 |
| 20260506011503 | 51 | 26 | 0.0 | 0.0 | 0.04 | 0.17 | 0.10 | 95 | 1005.6 |
| 20260506010004 | 51 | 25 | 0.0 | 0.0 | 0.05 | 0.17 | 0.09 | 96 | 1005.7 |
| 20260506004629 | 51 | 25 | 0.0 | 0.0 | 0.05 | 0.17 | 0.09 | 96 | 1005.8 |
| 20260506003112 | 51 | 25 | 0.0 | 0.0 | 0.03 | 0.15 | 0.07 | 95 | 1006.0 |